When you browse on this site, cookies collect data to enhance your experience and personalize the content and advertising you see.
Visit our Privacy Policy to learn more. By continuing to use the site, you agree to this use of cookies and data.
  • In Deutschland
  • Länderverzeichnis
  • Für 7 Tage
  • Wassertemperatur
  • Wetterkarte
  • Widgets
  • user-avatar
    Anmelden

    Stündliche Wetter Reding

    Heute, 19 September, Donnerstag

    Zeit Temperatur Niederschläge Wind Luftdruck Luftfeuchtigkeit
    00:00 +11°C° 0 mm 1 m/S 769 mmHg 81%
    01:00 +10°C° 0 mm 0 m/S 769 mmHg 82%
    02:00 +10°C° 0 mm 0 m/S 769 mmHg 83%
    03:00 +9°C° 0 mm 0 m/S 769 mmHg 85%
    04:00 +9°C° 0 mm 0 m/S 769 mmHg 85%
    05:00 +9°C° 0 mm 0 m/S 769 mmHg 85%
    06:00 +9°C° 0 mm 0 m/S 769 mmHg 85%
    07:00 +11°C° 0 mm 0 m/S 769 mmHg 78%
    08:00 +13°C° 0 mm 0 m/S 769 mmHg 71%
    09:00 +16°C° 0 mm 1 m/S 769 mmHg 64%
    10:00 +18°C° 0 mm 1 m/S 769 mmHg 60%
    11:00 +20°C° 0 mm 1 m/S 769 mmHg 56%
    12:00 +20°C° 0 mm 2 m/S 769 mmHg 52%
    13:00 +20°C° 0 mm 2 m/S 769 mmHg 52%
    14:00 +21°C° 0 mm 2 m/S 769 mmHg 51%
    15:00 +21°C° 0 mm 2 m/S 768 mmHg 51%
    16:00 +20°C° 0 mm 2 m/S 768 mmHg 57%
    17:00 +18°C° 0 mm 2 m/S 768 mmHg 62%
    18:00 +17°C° 0 mm 2 m/S 768 mmHg 68%
    19:00 +16°C° 0 mm 2 m/S 768 mmHg 71%
    20:00 +15°C° 0 mm 2 m/S 768 mmHg 75%
    21:00 +13°C° 0 mm 2 m/S 768 mmHg 78%
    22:00 +13°C° 0 mm 2 m/S 768 mmHg 81%
    23:00 +12°C° 0 mm 2 m/S 768 mmHg 84%

    Morgen, 20 September, Freitag

    Zeit Temperatur Niederschläge Wind Luftdruck Luftfeuchtigkeit
    00:00 +12°C° 0 mm 2 m/S 768 mmHg 86%
    01:00 +12°C° 0 mm 2 m/S 767 mmHg 88%
    02:00 +12°C° 0 mm 2 m/S 767 mmHg 89%
    03:00 +10°C° 0 mm 2 m/S 767 mmHg 91%
    04:00 +10°C° 0 mm 2 m/S 766 mmHg 91%
    05:00 +10°C° 0 mm 2 m/S 766 mmHg 92%
    06:00 +10°C° 0 mm 2 m/S 766 mmHg 92%
    07:00 +12°C° 0 mm 3 m/S 766 mmHg 81%
    08:00 +14°C° 0 mm 4 m/S 766 mmHg 69%
    09:00 +15°C° 0 mm 5 m/S 766 mmHg 58%
    10:00 +17°C° 0 mm 5 m/S 765 mmHg 53%
    11:00 +19°C° 0 mm 6 m/S 764 mmHg 48%
    12:00 +20°C° 0 mm 6 m/S 764 mmHg 43%
    13:00 +20°C° 0 mm 6 m/S 763 mmHg 43%
    14:00 +21°C° 0 mm 6 m/S 762 mmHg 43%
    15:00 +21°C° 0 mm 6 m/S 762 mmHg 42%
    16:00 +19°C° 0 mm 6 m/S 761 mmHg 48%
    17:00 +17°C° 0 mm 5 m/S 760 mmHg 53%
    18:00 +15°C° 0 mm 5 m/S 760 mmHg 59%
    19:00 +14°C° 0 mm 5 m/S 760 mmHg 61%
    20:00 +14°C° 0 mm 5 m/S 760 mmHg 63%
    21:00 +14°C° 0 mm 5 m/S 759 mmHg 65%
    22:00 +13°C° 0 mm 5 m/S 759 mmHg 64%
    23:00 +13°C° 0 mm 5 m/S 758 mmHg 64%

    übermorgen, 21 September, Samstag

    Zeit Temperatur Niederschläge Wind Luftdruck Luftfeuchtigkeit
    00:00 +13°C° 0 mm 5 m/S 758 mmHg 64%
    01:00 +13°C° 0 mm 4 m/S 757 mmHg 65%
    02:00 +12°C° 0 mm 4 m/S 757 mmHg 66%
    03:00 +12°C° 0 mm 4 m/S 756 mmHg 67%
    04:00 +12°C° 0 mm 4 m/S 756 mmHg 69%
    05:00 +11°C° 0 mm 4 m/S 755 mmHg 71%
    06:00 +11°C° 0 mm 4 m/S 755 mmHg 73%
    07:00 +12°C° 0 mm 5 m/S 755 mmHg 69%
    08:00 +14°C° 0 mm 5 m/S 754 mmHg 66%
    09:00 +16°C° 0 mm 6 m/S 754 mmHg 63%
    10:00 +17°C° 0 mm 6 m/S 754 mmHg 60%
    11:00 +20°C° 0 mm 6 m/S 753 mmHg 57%
    12:00 +22°C° 0 mm 5 m/S 753 mmHg 54%
    13:00 +23°C° 0 mm 5 m/S 752 mmHg 55%
    14:00 +23°C° 0 mm 5 m/S 752 mmHg 56%
    15:00 +25°C° 0 mm 5 m/S 751 mmHg 58%
    16:00 +22°C° 0 mm 5 m/S 751 mmHg 63%
    17:00 +21°C° 0 mm 4 m/S 751 mmHg 68%
    18:00 +20°C° 0 mm 3 m/S 750 mmHg 73%
    19:00 +19°C° 0.1 mm 3 m/S 750 mmHg 75%
    20:00 +19°C° 0.1 mm 3 m/S 750 mmHg 77%
    21:00 +19°C° 0.1 mm 3 m/S 750 mmHg 79%
    22:00 +19°C° 0.4 mm 3 m/S 749 mmHg 80%
    23:00 +19°C° 0.4 mm 4 m/S 749 mmHg 82%

    22 September, Sonntag

    Zeit Temperatur Niederschläge Wind Luftdruck Luftfeuchtigkeit
    00:00 +19°C° 0.4 mm 4 m/S 749 mmHg 84%
    01:00 +19°C° 0.1 mm 4 m/S 748 mmHg 85%
    02:00 +18°C° 0.1 mm 3 m/S 748 mmHg 87%
    03:00 +18°C° 0.1 mm 3 m/S 747 mmHg 89%
    04:00 +18°C° 0 mm 4 m/S 747 mmHg 90%
    05:00 +18°C° 0 mm 4 m/S 747 mmHg 91%
    06:00 +17°C° 0 mm 4 m/S 747 mmHg 92%
    07:00 +18°C° 0.5 mm 4 m/S 747 mmHg 93%
    08:00 +18°C° 0.5 mm 4 m/S 748 mmHg 93%
    09:00 +18°C° 0.5 mm 4 m/S 748 mmHg 93%
    10:00 +18°C° 0.9 mm 4 m/S 748 mmHg 87%
    11:00 +19°C° 0.9 mm 5 m/S 748 mmHg 80%
    12:00 +19°C° 0.9 mm 5 m/S 749 mmHg 74%
    13:00 +19°C° 0 mm 5 m/S 749 mmHg 72%
    14:00 +19°C° 0 mm 5 m/S 748 mmHg 69%
    15:00 +20°C° 0 mm 6 m/S 748 mmHg 66%
    16:00 +19°C° 0 mm 5 m/S 748 mmHg 71%
    17:00 +18°C° 0 mm 4 m/S 749 mmHg 75%
    18:00 +17°C° 0 mm 3 m/S 749 mmHg 79%
    19:00 +16°C° 0 mm 3 m/S 749 mmHg 83%
    20:00 +14°C° 0 mm 3 m/S 749 mmHg 87%
    21:00 +14°C° 0 mm 3 m/S 750 mmHg 91%
    22:00 +14°C° 0 mm 4 m/S 750 mmHg 91%
    23:00 +13°C° 0 mm 5 m/S 750 mmHg 91%

    23 September, Montag

    Zeit Temperatur Niederschläge Wind Luftdruck Luftfeuchtigkeit
    00:00 +13°C° 0 mm 5 m/S 751 mmHg 91%
    01:00 +13°C° 0 mm 5 m/S 751 mmHg 90%
    02:00 +12°C° 0 mm 5 m/S 751 mmHg 90%
    03:00 +12°C° 0 mm 5 m/S 751 mmHg 89%
    04:00 +12°C° 0 mm 5 m/S 752 mmHg 90%
    05:00 +12°C° 0 mm 5 m/S 752 mmHg 90%
    06:00 +12°C° 0 mm 4 m/S 752 mmHg 91%
    07:00 +13°C° 0 mm 4 m/S 753 mmHg 84%
    08:00 +14°C° 0 mm 5 m/S 753 mmHg 77%
    09:00 +16°C° 0 mm 5 m/S 753 mmHg 71%
    10:00 +17°C° 0 mm 5 m/S 753 mmHg 68%
    11:00 +19°C° 0 mm 5 m/S 753 mmHg 64%
    12:00 +20°C° 0 mm 5 m/S 753 mmHg 61%
    13:00 +19°C° 0.1 mm 6 m/S 753 mmHg 64%
    14:00 +19°C° 0.1 mm 6 m/S 753 mmHg 66%
    15:00 +17°C° 0.1 mm 6 m/S 752 mmHg 69%
    16:00 +16°C° 0.4 mm 6 m/S 752 mmHg 77%
    17:00 +16°C° 0.4 mm 5 m/S 752 mmHg 84%
    18:00 +15°C° 0.4 mm 5 m/S 752 mmHg 92%
    19:00 +15°C° 0.2 mm 4 m/S 752 mmHg 93%
    20:00 +17°C° 0.2 mm 4 m/S 752 mmHg 94%
    21:00 +17°C° 0.2 mm 3 m/S 752 mmHg 95%
    22:00 +17°C° 0.1 mm 3 m/S 752 mmHg 96%
    23:00 +17°C° 0.1 mm 3 m/S 752 mmHg 96%

    24 September, Dienstag

    Zeit Temperatur Niederschläge Wind Luftdruck Luftfeuchtigkeit
    00:00 +17°C° 0.1 mm 3 m/S 752 mmHg 96%
    01:00 +17°C° 0 mm 3 m/S 752 mmHg 96%
    02:00 +16°C° 0 mm 3 m/S 752 mmHg 96%
    03:00 +16°C° 0 mm 3 m/S 751 mmHg 97%
    04:00 +16°C° 0 mm 3 m/S 751 mmHg 97%
    05:00 +16°C° 0 mm 3 m/S 751 mmHg 97%
    06:00 +16°C° 0 mm 3 m/S 751 mmHg 97%
    07:00 +17°C° 0.6 mm 4 m/S 750 mmHg 95%
    08:00 +16°C° 0.6 mm 5 m/S 749 mmHg 94%
    09:00 +17°C° 0.6 mm 6 m/S 748 mmHg 92%
    10:00 +17°C° 2 mm 7 m/S 748 mmHg 92%
    11:00 +17°C° 2 mm 8 m/S 747 mmHg 92%
    12:00 +18°C° 2 mm 10 m/S 746 mmHg 92%
    13:00 +18°C° 0.3 mm 10 m/S 746 mmHg 87%
    14:00 +18°C° 0.3 mm 9 m/S 746 mmHg 82%
    15:00 +18°C° 0.3 mm 9 m/S 746 mmHg 77%
    16:00 +17°C° 0.2 mm 8 m/S 746 mmHg 79%
    17:00 +16°C° 0.2 mm 7 m/S 747 mmHg 82%
    18:00 +15°C° 0.2 mm 6 m/S 747 mmHg 85%
    19:00 +14°C° 0 mm 6 m/S 747 mmHg 87%
    20:00 +14°C° 0 mm 5 m/S 747 mmHg 89%
    21:00 +14°C° 0 mm 5 m/S 748 mmHg 91%
    22:00 +14°C° 0.1 mm 5 m/S 747 mmHg 91%
    23:00 +15°C° 0.1 mm 6 m/S 747 mmHg 91%
    Mehr zeigen